THY5AZ LTFM-LSZH

Flight info

Callsign THY5AZ
Flight time N/A
Altitude 34000
Route VADEN DCT BAKLO DCT XANEX DCT BESLI DCT UTEKA DCT BEDOX DCT ERKIR DCT KPT L856 NEGRA
Aircraft B738/M-SDE2E3FGHIRWXY/LB1

Departure

Time 2026-05-05 08:50
Airport İstanbul Airport (LTFM)

Arrival

Time N/A
Airport Zürich Airport (LSZH)
Time Latitude Longitude Altitude Speed Heading
2026-05-05 08:19 41.26666 28.74349 312 ft 0 kts 269°
2026-05-05 08:29 41.26666 28.74354 312 ft 3 kts 269°
2026-05-05 08:29 41.26667 28.74382 312 ft 4 kts 270°
2026-05-05 08:30 41.26667 28.74438 312 ft 4 kts 281°
2026-05-05 08:30 41.26660 28.74461 312 ft 4 kts 341°
2026-05-05 08:30 41.26654 28.74464 311 ft 3 kts 359°
2026-05-05 08:30 41.26677 28.74463 311 ft 3 kts 359°
2026-05-05 08:31 41.26678 28.74463 311 ft 3 kts 359°
2026-05-05 08:31 41.26659 28.74463 312 ft 1 kts 359°
2026-05-05 08:33 41.26660 28.74463 312 ft 1 kts 359°
2026-05-05 08:34 41.26705 28.74462 312 ft 12 kts 359°
2026-05-05 08:34 41.26804 28.74460 312 ft 14 kts 359°
2026-05-05 08:34 41.26903 28.74459 312 ft 15 kts 359°
2026-05-05 08:34 41.26994 28.74459 311 ft 10 kts
2026-05-05 08:35 41.27051 28.74423 309 ft 10 kts 292°
2026-05-05 08:35 41.27055 28.74334 309 ft 10 kts 270°
2026-05-05 08:35 41.27055 28.74246 309 ft 9 kts 271°
2026-05-05 08:35 41.27057 28.74161 309 ft 9 kts 271°
2026-05-05 08:36 41.27059 28.74077 309 ft 9 kts 268°
2026-05-05 08:36 41.27058 28.74070 309 ft 0 kts 265°
2026-05-05 08:42 41.27053 28.73993 309 ft 16 kts 265°
2026-05-05 08:42 41.27050 28.73843 309 ft 16 kts 271°
2026-05-05 08:42 41.27052 28.73698 309 ft 15 kts 272°
2026-05-05 08:43 41.27051 28.73498 309 ft 26 kts 268°
2026-05-05 08:43 41.27044 28.73261 309 ft 25 kts 268°
2026-05-05 08:43 41.27041 28.73063 305 ft 2 kts 269°
2026-05-05 08:43 41.27041 28.73047 305 ft 2 kts 269°
2026-05-05 08:44 41.27040 28.73034 305 ft 0 kts 263°
2026-05-05 08:45 41.27031 28.72993 305 ft 7 kts 236°
2026-05-05 08:46 41.26987 28.72984 306 ft 7 kts 176°
2026-05-05 08:46 41.26928 28.72988 308 ft 14 kts 177°
2026-05-05 08:46 41.26804 28.72991 310 ft 20 kts 179°
2026-05-05 08:46 41.26779 28.72991 309 ft 2 kts 179°
2026-05-05 08:47 41.26760 28.72991 309 ft 7 kts 186°
2026-05-05 08:47 41.26722 28.72956 309 ft 7 kts 245°
2026-05-05 08:47 41.26721 28.72953 309 ft 0 kts 247°
2026-05-05 08:47 41.26717 28.72933 308 ft 11 kts 262°
2026-05-05 08:48 41.26716 28.72762 308 ft 22 kts 269°
2026-05-05 08:48 41.26713 28.72576 309 ft 10 kts 268°
2026-05-05 08:48 41.26748 28.72514 308 ft 10 kts 358°
2026-05-05 08:48 41.26755 28.72513 308 ft 0 kts 359°
2026-05-05 08:49 41.26791 28.72513 308 ft 26 kts 359°
2026-05-05 08:49 41.27231 28.72502 297 ft 99 kts 359°
2026-05-05 08:49 41.28135 28.72481 287 ft 158 kts 358°
2026-05-05 08:49 41.29296 28.72475 874 ft 168 kts 360°
2026-05-05 08:50 41.30483 28.72482 1739 ft 172 kts
2026-05-05 08:50 41.31698 28.72482 2489 ft 181 kts 360°
2026-05-05 08:50 41.33046 28.72348 2732 ft 209 kts 344°
2026-05-05 08:50 41.34219 28.71102 3061 ft 228 kts 307°
2026-05-05 08:51 41.35069 28.69274 3570 ft 235 kts 304°
2026-05-05 08:51 41.35908 28.67438 4245 ft 235 kts 304°
2026-05-05 08:51 41.36786 28.65546 4719 ft 250 kts 305°
2026-05-05 08:51 41.37726 28.63553 5395 ft 257 kts 306°
2026-05-05 08:52 41.38689 28.61533 6233 ft 258 kts 307°
2026-05-05 08:52 41.39662 28.59513 7027 ft 260 kts 307°
2026-05-05 08:52 41.40651 28.57476 7779 ft 263 kts 307°
2026-05-05 08:52 41.41656 28.55419 8526 ft 267 kts 308°
2026-05-05 08:53 41.42675 28.53339 9273 ft 270 kts 308°
2026-05-05 08:53 41.43714 28.51228 10037 ft 273 kts 308°
2026-05-05 08:53 41.44779 28.49070 10434 ft 289 kts 308°
2026-05-05 08:53 41.45933 28.46742 10590 ft 312 kts 308°
2026-05-05 08:54 41.47154 28.44280 10831 ft 330 kts 307°
2026-05-05 08:54 41.48431 28.41692 11398 ft 337 kts 307°
2026-05-05 08:54 41.49725 28.39063 12088 ft 340 kts 307°
2026-05-05 08:54 41.51030 28.36411 12774 ft 344 kts 307°
2026-05-05 08:55 41.52348 28.33731 13458 ft 348 kts 307°
2026-05-05 08:55 41.53684 28.31014 14056 ft 352 kts 307°
2026-05-05 08:55 41.55033 28.28271 14678 ft 355 kts 307°
2026-05-05 08:55 41.56391 28.25507 15316 ft 357 kts 307°
2026-05-05 08:56 41.57760 28.22721 15903 ft 361 kts 307°
2026-05-05 08:56 41.59141 28.19906 16504 ft 363 kts 307°
2026-05-05 08:56 41.60531 28.17073 17110 ft 366 kts 307°
2026-05-05 08:56 41.61931 28.14215 17705 ft 369 kts 307°
2026-05-05 08:57 41.63322 28.11372 18273 ft 373 kts 307°
2026-05-05 08:57 41.64748 28.08458 18786 ft 376 kts 307°
2026-05-05 08:57 41.66179 28.05530 19313 ft 378 kts 306°
2026-05-05 08:57 41.67616 28.02585 19808 ft 380 kts 306°
2026-05-05 08:58 41.69071 27.99601 20300 ft 383 kts 306°
2026-05-05 08:58 41.70532 27.96602 20804 ft 386 kts 306°
2026-05-05 08:58 41.72002 27.93581 21274 ft 389 kts 306°
2026-05-05 08:58 41.73484 27.90533 21751 ft 391 kts 305°
2026-05-05 08:59 41.74970 27.87472 22223 ft 394 kts 305°
2026-05-05 08:59 41.76449 27.84425 22689 ft 397 kts 305°
2026-05-05 08:59 41.77955 27.81317 23138 ft 400 kts 305°
2026-05-05 08:59 41.79473 27.78182 23593 ft 402 kts 304°
2026-05-05 09:00 41.80999 27.75027 23974 ft 405 kts 304°
2026-05-05 09:00 41.82531 27.71853 24367 ft 406 kts 305°
2026-05-05 09:00 41.84066 27.68673 24789 ft 407 kts 305°
2026-05-05 09:00 41.85606 27.65481 25158 ft 409 kts 305°
2026-05-05 09:01 41.87153 27.62271 25512 ft 411 kts 305°
2026-05-05 09:01 41.88707 27.59044 25847 ft 413 kts 305°
2026-05-05 09:01 41.90268 27.55795 26180 ft 415 kts 305°
2026-05-05 09:01 41.91816 27.52571 26515 ft 417 kts 304°
2026-05-05 09:02 41.93386 27.49297 26875 ft 419 kts 304°
2026-05-05 09:02 41.94965 27.46001 27193 ft 420 kts 305°
2026-05-05 09:02 41.96548 27.42693 27544 ft 422 kts 305°
2026-05-05 09:02 41.98136 27.39371 27871 ft 423 kts 305°
2026-05-05 09:03 41.99731 27.36032 28175 ft 426 kts 305°
2026-05-05 09:03 42.01332 27.32675 28479 ft 427 kts 305°
2026-05-05 09:03 42.02938 27.29305 28789 ft 429 kts 305°
2026-05-05 09:03 42.04547 27.25925 29160 ft 428 kts 304°
2026-05-05 09:04 42.06130 27.22605 29637 ft 426 kts 306°
2026-05-05 09:04 42.07895 27.19437 30101 ft 421 kts 313°
2026-05-05 09:04 42.09838 27.16504 30480 ft 419 kts 314°
2026-05-05 09:04 42.11807 27.13607 30731 ft 420 kts 314°
2026-05-05 09:05 42.13786 27.10703 30993 ft 421 kts 314°
2026-05-05 09:05 42.15753 27.07796 31318 ft 420 kts 314°
2026-05-05 09:05 42.17711 27.04880 31653 ft 419 kts 314°
2026-05-05 09:05 42.19664 27.01951 31930 ft 419 kts 313°
2026-05-05 09:06 42.21606 26.99025 32162 ft 420 kts 313°
2026-05-05 09:06 42.23551 26.96087 32446 ft 419 kts 313°
2026-05-05 09:06 42.25464 26.93191 32761 ft 418 kts 313°
2026-05-05 09:06 42.27398 26.90260 33055 ft 418 kts 313°
2026-05-05 09:07 42.29331 26.87329 33316 ft 418 kts 313°
2026-05-05 09:07 42.31265 26.84393 33552 ft 418 kts 313°
2026-05-05 09:07 42.33197 26.81457 33839 ft 418 kts 313°
2026-05-05 09:07 42.35127 26.78523 34074 ft 418 kts 313°
2026-05-05 09:08 42.37067 26.75569 34052 ft 422 kts 313°
2026-05-05 09:08 42.40947 26.69653 34062 ft 420 kts 313°
2026-05-05 09:09 42.44767 26.63816 34066 ft 414 kts 313°
2026-05-05 09:09 42.48584 26.57973 34073 ft 414 kts 313°
2026-05-05 09:10 42.52394 26.52132 34073 ft 413 kts 313°
2026-05-05 09:10 42.55754 26.45804 34076 ft 417 kts 301°
2026-05-05 09:11 42.58447 26.38896 34073 ft 417 kts 300°
2026-05-05 09:11 42.61155 26.31919 34073 ft 418 kts 301°
2026-05-05 09:12 42.63886 26.24934 34065 ft 419 kts 301°
2026-05-05 09:12 42.66627 26.17946 34061 ft 420 kts 301°
2026-05-05 09:13 42.69355 26.10984 34080 ft 420 kts 301°
2026-05-05 09:13 42.72101 26.03959 34070 ft 421 kts 301°
2026-05-05 09:14 42.74850 25.96911 34063 ft 422 kts 301°
2026-05-05 09:14 42.77597 25.89847 34063 ft 422 kts 301°
2026-05-05 09:15 42.80316 25.82837 34058 ft 421 kts 301°
2026-05-05 09:15 42.83042 25.75791 34062 ft 421 kts 301°
2026-05-05 09:16 42.85766 25.68735 34054 ft 419 kts 301°
2026-05-05 09:16 42.88470 25.61713 34056 ft 418 kts 301°
2026-05-05 09:17 42.91164 25.54698 34067 ft 417 kts 301°
2026-05-05 09:17 42.93832 25.47737 34067 ft 416 kts 301°
2026-05-05 09:18 42.96509 25.40733 34058 ft 416 kts 301°
2026-05-05 09:18 42.99178 25.33734 34063 ft 415 kts 301°
2026-05-05 09:19 43.01840 25.26736 34059 ft 415 kts 301°
2026-05-05 09:19 43.04476 25.19790 34059 ft 415 kts 301°
2026-05-05 09:20 43.07126 25.12786 34062 ft 415 kts 300°
2026-05-05 09:20 43.09772 25.05781 34051 ft 415 kts 301°
2026-05-05 09:21 43.12419 24.98751 34055 ft 416 kts 300°
2026-05-05 09:21 43.14724 24.91455 34075 ft 418 kts 295°
2026-05-05 09:22 43.16854 24.84087 34058 ft 419 kts 295°
2026-05-05 09:22 43.19004 24.76660 34041 ft 420 kts 295°
2026-05-05 09:23 43.21170 24.69240 34067 ft 419 kts 295°
2026-05-05 09:23 43.23340 24.61816 34064 ft 419 kts 295°
2026-05-05 09:24 43.25491 24.54440 34061 ft 419 kts 295°
2026-05-05 09:24 43.27648 24.47022 34060 ft 419 kts 295°
2026-05-05 09:25 43.29799 24.39600 34067 ft 418 kts 295°
2026-05-05 09:25 43.31943 24.32182 34065 ft 418 kts 295°
2026-05-05 09:26 43.34067 24.24811 34069 ft 418 kts 295°
2026-05-05 09:26 43.36200 24.17385 34064 ft 418 kts 295°
2026-05-05 09:27 43.38328 24.09957 34063 ft 417 kts 295°
2026-05-05 09:27 43.40448 24.02542 34064 ft 416 kts 296°
2026-05-05 09:28 43.42731 23.95241 34068 ft 415 kts 297°
2026-05-05 09:28 43.45075 23.88033 34065 ft 415 kts 297°
2026-05-05 09:29 43.47413 23.80773 34061 ft 415 kts 297°
2026-05-05 09:29 43.49729 23.73501 34065 ft 414 kts 297°
2026-05-05 09:30 43.52032 23.66225 34066 ft 414 kts 297°
2026-05-05 09:30 43.54312 23.58995 34073 ft 414 kts 297°
2026-05-05 09:31 43.56603 23.51714 34048 ft 414 kts 297°
2026-05-05 09:31 43.58885 23.44441 34062 ft 413 kts 297°
2026-05-05 09:32 43.61161 23.37166 34064 ft 413 kts 297°
2026-05-05 09:32 43.63418 23.29933 34070 ft 413 kts 297°
2026-05-05 09:33 43.65685 23.22648 34051 ft 413 kts 296°
2026-05-05 09:33 43.67947 23.15358 34062 ft 413 kts 296°
2026-05-05 09:34 43.70206 23.08059 34069 ft 413 kts 296°
2026-05-05 09:34 43.72445 23.00801 34063 ft 414 kts 296°
2026-05-05 09:35 43.74698 22.93479 34066 ft 414 kts 296°
2026-05-05 09:35 43.78069 22.82484 34060 ft 414 kts 296°
2026-05-05 09:36 43.80312 22.75143 34065 ft 414 kts 296°
2026-05-05 09:36 43.82536 22.67842 34068 ft 414 kts 296°
2026-05-05 09:37 43.84770 22.60487 34066 ft 415 kts 296°
2026-05-05 09:37 43.87001 22.53123 34064 ft 414 kts 296°
2026-05-05 09:38 43.89227 22.45755 34067 ft 414 kts 296°
2026-05-05 09:38 43.91474 22.38406 34062 ft 413 kts 299°
2026-05-05 09:39 43.94177 22.31459 34070 ft 412 kts 302°
2026-05-05 09:39 43.97016 22.24564 34072 ft 412 kts 302°
2026-05-05 09:40 43.99834 22.17649 34064 ft 412 kts 302°
2026-05-05 09:40 44.02627 22.10702 34060 ft 412 kts 302°
2026-05-05 09:41 44.05388 22.03782 34068 ft 412 kts 301°
2026-05-05 09:41 44.08160 21.96807 34052 ft 412 kts 301°
2026-05-05 09:42 44.10927 21.89827 34074 ft 412 kts 301°
2026-05-05 09:42 44.13692 21.82837 34069 ft 412 kts 301°
2026-05-05 09:43 44.16434 21.75886 34069 ft 413 kts 301°
2026-05-05 09:43 44.19193 21.68875 34058 ft 413 kts 301°
2026-05-05 09:44 44.21952 21.61848 34057 ft 413 kts 301°
2026-05-05 09:44 44.24707 21.54814 34063 ft 414 kts 300°
2026-05-05 09:45 44.27446 21.47803 34056 ft 414 kts 300°
2026-05-05 09:45 44.30201 21.40731 34058 ft 415 kts 300°
2026-05-05 09:46 44.32954 21.33649 34048 ft 415 kts 300°
2026-05-05 09:46 44.35705 21.26552 34063 ft 416 kts 300°
2026-05-05 09:47 44.38457 21.19435 34056 ft 417 kts 300°
2026-05-05 09:47 44.41192 21.12345 34050 ft 417 kts 300°
2026-05-05 09:48 44.43943 21.05196 34037 ft 417 kts 299°
2026-05-05 09:48 44.46690 20.98038 34048 ft 418 kts 299°
2026-05-05 09:49 44.49435 20.90866 34045 ft 418 kts 299°
2026-05-05 09:49 44.52178 20.83679 34046 ft 418 kts 299°
2026-05-05 09:50 44.54900 20.76532 34044 ft 419 kts 299°
2026-05-05 09:50 44.57637 20.69325 34044 ft 418 kts 298°
2026-05-05 09:51 44.60368 20.62117 34039 ft 418 kts 298°
2026-05-05 09:51 44.63094 20.54902 34043 ft 418 kts 298°
2026-05-05 09:52 44.65793 20.47741 34042 ft 418 kts 298°
2026-05-05 09:52 44.68501 20.40535 34043 ft 417 kts 298°
2026-05-05 09:53 44.71201 20.33334 34046 ft 416 kts 298°
2026-05-05 09:53 44.73889 20.26144 34046 ft 415 kts 298°
2026-05-05 09:54 44.76571 20.18954 34047 ft 415 kts 298°
2026-05-05 09:54 44.79226 20.11818 34039 ft 414 kts 297°
2026-05-05 09:55 44.81893 20.04630 34044 ft 414 kts 297°
2026-05-05 09:55 44.84556 19.97433 34041 ft 414 kts 297°
2026-05-05 09:56 44.87215 19.90228 34038 ft 415 kts 297°
2026-05-05 09:56 44.89856 19.83052 34035 ft 415 kts 297°
2026-05-05 09:57 44.92515 19.75813 34025 ft 416 kts 297°
2026-05-05 09:57 44.95175 19.68547 34028 ft 417 kts 297°
2026-05-05 09:58 44.97837 19.61258 34028 ft 418 kts 297°
2026-05-05 09:58 45.00484 19.53990 34023 ft 419 kts 297°
2026-05-05 09:59 45.03151 19.46650 34023 ft 420 kts 296°
2026-05-05 09:59 45.05816 19.39294 34026 ft 421 kts 296°
2026-05-05 10:00 45.08478 19.31925 34026 ft 421 kts 296°
2026-05-05 10:00 45.11119 19.24593 34026 ft 421 kts 296°
2026-05-05 10:01 45.13774 19.17206 34019 ft 421 kts 296°
2026-05-05 10:01 45.16422 19.09818 34020 ft 420 kts 296°
2026-05-05 10:02 45.19062 19.02429 34016 ft 420 kts 296°
2026-05-05 10:02 45.21677 18.95093 34024 ft 419 kts 296°
2026-05-05 10:03 45.24301 18.87709 34017 ft 419 kts 296°
2026-05-05 10:03 45.26920 18.80323 34023 ft 418 kts 296°
2026-05-05 10:04 45.29528 18.72944 34017 ft 418 kts 296°
2026-05-05 10:04 45.32132 18.65557 34016 ft 418 kts 296°
2026-05-05 10:05 45.34709 18.58226 34015 ft 417 kts 296°
2026-05-05 10:05 45.37299 18.50840 34018 ft 417 kts 296°
2026-05-05 10:06 45.39881 18.43455 34011 ft 417 kts 295°
2026-05-05 10:06 45.42455 18.36073 34015 ft 416 kts 295°
2026-05-05 10:07 45.45006 18.28737 34007 ft 416 kts 295°
2026-05-05 10:07 45.47566 18.21354 34010 ft 416 kts 295°
2026-05-05 10:08 45.50123 18.13959 34010 ft 416 kts 295°
2026-05-05 10:08 45.52675 18.06558 34005 ft 416 kts 295°
2026-05-05 10:09 45.55207 17.99195 34000 ft 416 kts 295°
2026-05-05 10:09 45.57754 17.91770 34004 ft 417 kts 295°
2026-05-05 10:10 45.60296 17.84335 34007 ft 417 kts 295°
2026-05-05 10:10 45.62838 17.76882 34005 ft 418 kts 295°
2026-05-05 10:11 45.65361 17.69462 34001 ft 418 kts 295°
2026-05-05 10:11 45.67894 17.61991 34003 ft 418 kts 295°
2026-05-05 10:12 45.70421 17.54518 34000 ft 417 kts 295°
2026-05-05 10:12 45.72943 17.47041 33999 ft 417 kts 294°
2026-05-05 10:13 45.75454 17.39571 33998 ft 416 kts 294°
2026-05-05 10:13 45.77939 17.32159 33999 ft 415 kts 294°
2026-05-05 10:14 45.80431 17.24707 33995 ft 415 kts 294°
2026-05-05 10:14 45.82916 17.17251 33995 ft 414 kts 294°
2026-05-05 10:15 45.85392 17.09805 33994 ft 414 kts 294°
2026-05-05 10:15 45.87847 17.02398 33996 ft 414 kts 294°
2026-05-05 10:16 45.90312 16.94941 33990 ft 414 kts 294°
2026-05-05 10:16 45.92775 16.87468 34002 ft 414 kts 294°
2026-05-05 10:17 45.95234 16.79986 33995 ft 415 kts 294°
2026-05-05 10:17 45.97676 16.72536 34000 ft 415 kts 294°
2026-05-05 10:18 46.00130 16.65026 33996 ft 415 kts 294°
2026-05-05 10:18 46.02583 16.57498 33993 ft 415 kts 294°
2026-05-05 10:19 46.05029 16.49968 33995 ft 416 kts 294°
2026-05-05 10:19 46.07457 16.42475 33999 ft 416 kts 293°
2026-05-05 10:20 46.09898 16.34918 33989 ft 416 kts 293°
2026-05-05 10:20 46.12334 16.27353 33987 ft 416 kts 293°
2026-05-05 10:21 46.14764 16.19785 33992 ft 416 kts 293°
2026-05-05 10:21 46.17175 16.12256 33989 ft 416 kts 293°
2026-05-05 10:22 46.19598 16.04661 33987 ft 416 kts 293°
2026-05-05 10:22 46.22017 15.97063 33983 ft 416 kts 293°
2026-05-05 10:23 46.24430 15.89462 33981 ft 416 kts 293°
2026-05-05 10:23 46.26819 15.81918 33980 ft 416 kts 294°
2026-05-05 10:24 46.29412 15.74452 33984 ft 416 kts 296°
2026-05-05 10:24 46.32102 15.67057 33964 ft 415 kts 296°
2026-05-05 10:25 46.34769 15.59657 33967 ft 415 kts 295°
2026-05-05 10:25 46.37410 15.52249 33961 ft 414 kts 295°
2026-05-05 10:26 46.40016 15.44884 33974 ft 413 kts 295°
2026-05-05 10:26 46.42627 15.37476 33958 ft 413 kts 295°
2026-05-05 10:27 46.45236 15.30057 33949 ft 413 kts 295°
2026-05-05 10:27 46.47835 15.22642 33950 ft 412 kts 295°
2026-05-05 10:28 46.50428 15.15226 33980 ft 412 kts 294°
2026-05-05 10:28 46.53000 15.07850 33992 ft 412 kts 294°
2026-05-05 10:29 46.55589 15.00402 33980 ft 413 kts 294°
2026-05-05 10:29 46.58173 14.92948 33965 ft 414 kts 294°
2026-05-05 10:30 46.60762 14.85459 33966 ft 415 kts 294°
2026-05-05 10:30 46.63331 14.78009 33961 ft 416 kts 294°
2026-05-05 10:31 46.65920 14.70479 33976 ft 416 kts 294°
2026-05-05 10:31 46.68504 14.62941 33970 ft 416 kts 294°
2026-05-05 10:32 46.71083 14.55396 33965 ft 416 kts 293°
2026-05-05 10:32 46.73659 14.47836 33965 ft 417 kts 293°
2026-05-05 10:33 46.76218 14.40307 33961 ft 417 kts 293°
2026-05-05 10:33 46.78790 14.32717 33962 ft 418 kts 293°
2026-05-05 10:34 46.81353 14.25130 33960 ft 419 kts 293°
2026-05-05 10:34 46.83920 14.17509 33951 ft 419 kts 293°
2026-05-05 10:35 46.86472 14.09912 33951 ft 420 kts 293°
2026-05-05 10:35 46.89039 14.02246 33931 ft 421 kts 292°
2026-05-05 10:36 46.91611 13.94544 33944 ft 422 kts 293°
2026-05-05 10:36 46.94180 13.86831 33943 ft 422 kts 292°
2026-05-05 10:37 46.96745 13.79105 33937 ft 422 kts 292°
2026-05-05 10:37 46.99290 13.71413 33938 ft 422 kts 293°
2026-05-05 10:38 47.01848 13.63663 33937 ft 422 kts 292°
2026-05-05 10:38 47.04395 13.55919 33921 ft 422 kts 293°
2026-05-05 10:39 47.06935 13.48174 33935 ft 421 kts 292°
2026-05-05 10:39 47.09446 13.40498 33923 ft 419 kts 293°
2026-05-05 10:40 47.11959 13.32793 33915 ft 418 kts 292°
2026-05-05 10:40 47.14458 13.25103 33906 ft 417 kts 293°
2026-05-05 10:41 47.16530 13.18711 33905 ft 417 kts 292°
2026-05-05 10:41 47.19425 13.09751 33900 ft 418 kts 292°
2026-05-05 10:42 47.22758 12.99398 33893 ft 419 kts 292°
2026-05-05 10:43 47.25230 12.91696 33892 ft 419 kts 292°
2026-05-05 10:43 47.27716 12.83924 33869 ft 420 kts 292°
2026-05-05 10:44 47.30609 12.74847 33877 ft 422 kts 292°
2026-05-05 10:44 47.32700 12.68267 33870 ft 424 kts 292°
2026-05-05 10:45 47.35186 12.60422 33857 ft 426 kts 292°
2026-05-05 10:45 47.37693 12.52490 33851 ft 427 kts 291°
2026-05-05 10:46 47.40201 12.44527 33844 ft 428 kts 291°
2026-05-05 10:46 47.42704 12.36553 33837 ft 429 kts 290°
2026-05-05 10:47 47.45190 12.28609 33835 ft 429 kts 291°
2026-05-05 10:47 47.47689 12.20601 33820 ft 429 kts 291°
2026-05-05 10:48 47.50177 12.12601 33810 ft 428 kts 290°
2026-05-05 10:48 47.52658 12.04600 33805 ft 428 kts 290°
2026-05-05 10:49 47.54510 11.96397 33832 ft 420 kts 277°
2026-05-05 10:49 47.55586 11.87902 33813 ft 421 kts 277°
2026-05-05 10:50 47.56659 11.79379 33809 ft 421 kts 277°
2026-05-05 10:50 47.57756 11.70854 33808 ft 419 kts 277°
2026-05-05 10:50 47.58319 11.66538 33792 ft 404 kts 277°
2026-05-05 10:51 47.58847 11.62489 33786 ft 394 kts 277°
2026-05-05 10:51 47.59353 11.58606 33783 ft 383 kts 276°
2026-05-05 10:51 47.59849 11.54765 33791 ft 380 kts 276°
2026-05-05 10:52 47.60845 11.46958 33822 ft 391 kts 276°
2026-05-05 10:52 47.61863 11.38936 33822 ft 399 kts 276°
2026-05-05 10:53 47.62884 11.30922 33491 ft 390 kts 276°
2026-05-05 10:53 47.63381 11.27010 33207 ft 383 kts 276°
2026-05-05 10:53 47.63870 11.23147 32888 ft 379 kts 276°
2026-05-05 10:53 47.64346 11.19364 32509 ft 377 kts 276°
2026-05-05 10:54 47.64821 11.15565 32152 ft 374 kts 276°
2026-05-05 10:54 47.65293 11.11791 31807 ft 371 kts 276°
2026-05-05 10:54 47.65759 11.08037 31475 ft 377 kts 276°
2026-05-05 10:54 47.66240 11.04125 31140 ft 395 kts 276°
2026-05-05 10:55 47.66742 11.00019 30769 ft 413 kts 276°
2026-05-05 10:55 47.67267 10.95734 30375 ft 431 kts 276°
2026-05-05 10:55 47.67808 10.91336 29926 ft 435 kts 276°
2026-05-05 10:55 47.68354 10.86929 29459 ft 432 kts 276°
2026-05-05 10:56 47.68887 10.82607 28828 ft 431 kts 276°
2026-05-05 10:56 47.69422 10.78247 28269 ft 427 kts 276°
2026-05-05 10:56 47.69949 10.73929 27737 ft 423 kts 276°
2026-05-05 10:56 47.70470 10.69636 27209 ft 421 kts 276°
2026-05-05 10:57 47.70986 10.65363 26692 ft 419 kts 276°
2026-05-05 10:57 47.71496 10.61116 26219 ft 417 kts 276°
2026-05-05 10:57 47.72004 10.56876 25731 ft 417 kts 276°
2026-05-05 10:57 47.72510 10.52638 25244 ft 417 kts 276°
2026-05-05 10:58 47.73013 10.48415 24743 ft 414 kts 276°
2026-05-05 10:58 47.73511 10.44231 24275 ft 411 kts 276°
2026-05-05 10:58 47.73999 10.40114 23814 ft 408 kts 276°
2026-05-05 10:58 47.74473 10.35979 23336 ft 405 kts 274°
2026-05-05 10:59 47.74626 10.31840 22794 ft 398 kts 265°
2026-05-05 10:59 47.74524 10.27755 22273 ft 395 kts 264°
2026-05-05 10:59 47.74397 10.23695 21743 ft 392 kts 264°
2026-05-05 10:59 47.74276 10.19660 21233 ft 390 kts 264°
2026-05-05 11:00 47.74163 10.15653 20723 ft 388 kts 264°
2026-05-05 11:00 47.74060 10.11665 20235 ft 385 kts 264°
2026-05-05 11:00 47.73965 10.07691 19738 ft 383 kts 264°
2026-05-05 11:00 47.73872 10.03818 19279 ft 382 kts 264°
2026-05-05 11:01 47.73776 9.99889 18808 ft 380 kts 264°
2026-05-05 11:01 47.73677 9.95980 18350 ft 378 kts 264°
2026-05-05 11:01 47.73578 9.92105 17864 ft 377 kts 264°
2026-05-05 11:01 47.73477 9.88231 17324 ft 375 kts 264°
2026-05-05 11:02 47.73375 9.84371 16813 ft 373 kts 264°
2026-05-05 11:02 47.73273 9.80535 16303 ft 371 kts 264°
2026-05-05 11:02 47.73172 9.76779 15810 ft 370 kts 264°
2026-05-05 11:02 47.73069 9.72973 15320 ft 368 kts 264°
2026-05-05 11:03 47.72964 9.69194 14851 ft 366 kts 264°
2026-05-05 11:03 47.72930 9.67968 14702 ft 365 kts 264°